Tracking 19638 objects as of 19-May-2019
HD Live streaming from Space Station
objects crossing your sky now

BONUM 1

Track BONUM 1 now!
BONUM 1 is classified as:


NORAD ID: 25546
Int'l Code: 1998-068A
Perigee: 36,113.4 km
Apogee: 36,172.9 km
Inclination: 5.6 °
Period: 1,454.0 minutes
Semi major axis: 42514 km
RCS: 0.003 m2 (small)
Launch date: November 22, 1998
Source: Commonwealth of Independent States (former USSR) (CIS)
Launch site: AIR FORCE EASTERN TEST RANGE (AFETR)

Television broadcasting; 8 Ku-band, Siberia or Europe, selected.
aabbcc
Your satellite tracking list
Your tracking list is empty




NASA's NSSDC Master Catalog

Two Line Element Set (TLE):
1 25546U 98068A   19139.02384580 -.00000021  00000-0  00000+0 0  9999
2 25546   5.5648  63.9221 0006987 305.3615 266.2108  0.99038204 74919
Source of the keplerian elements: AFSPC